Weather reports worldwide

Advertisment
Donna Nook RAF, United Kingdom (3385): temperature & dewpoint: 11.10.2018 07:00:00 - 17.10.2018 07:00:00 (BST)Donna Nook RAF, United Kingdom (3385): wind speed & gusts: 11.10.2018 07:00:00 - 17.10.2018 07:00:00 (BST)Donna Nook RAF, United Kingdom (3385): wind direction: 11.10.2018 07:00:00 - 17.10.2018 07:00:00 (BST)Donna Nook RAF, United Kingdom (3385): reduced air pressure: 11.10.2018 07:00:00 - 17.10.2018 07:00:00 (BST)Donna Nook RAF, United Kingdom (3385): visibility: 11.10.2018 07:00:00 - 17.10.2018 07:00:00 (BST)
Date & Time tt [°C] td [°C] ff [km/h] ff [kn] fx [km/h] fx [kn] dd ppp [hPa] vv [km]
17.10.2018 07:00:00 12,4 11,0 15 8 - - SW 1015,8 16
17.10.2018 06:00:00 12,4 10,7 13 7 - - SW 1015,3 10
17.10.2018 05:00:00 12,3 10,6 15 8 - - SSW 1014,8 25
17.10.2018 04:00:00 12,3 10,7 16 9 - - SSW 1014,5 22
17.10.2018 03:00:00 12,5 10,7 16 9 - - SSW 1014,6 22
17.10.2018 02:00:00 12,6 10,9 16 9 - - SSW 1014,5 20
17.10.2018 01:00:00 13,4 11,8 18 10 - - SSW 1014,6 10
17.10.2018 00:00:00 13,9 12,7 15 8 - - SSW 1014,4 10
16.10.2018 23:00:00 14,5 13,0 15 8 - - S 1014,5 10
16.10.2018 22:00:00 14,4 13,4 13 7 - - S 1014,5 7
16.10.2018 21:00:00 14,2 13,3 11 6 - - S 1014,2 6
16.10.2018 20:00:00 14,8 13,6 11 6 - - S 1014,2 8
16.10.2018 19:00:00 15,0 13,6 13 7 - - S 1014,2 11
16.10.2018 18:00:00 15,2 13,6 13 7 - - S 1013,9 12
16.10.2018 17:00:00 15,3 13,7 16 9 - - S 1014,3 12
16.10.2018 16:00:00 15,8 13,7 16 9 - - S 1014,1 17
16.10.2018 15:00:00 16,1 13,6 16 9 - - S 1014,1 20
16.10.2018 14:00:00 16,6 14,7 15 8 - - S 1014,1 26
16.10.2018 13:00:00 15,3 14,5 13 7 - - S 1014,5 19
16.10.2018 12:00:00 13,6 13,2 15 8 - - SSW 1014,9 5
16.10.2018 11:00:00 13,5 13,1 11 6 - - S 1014,9 15
16.10.2018 10:00:00 12,6 12,4 13 7 - - S 1014,9 9
16.10.2018 09:00:00 12,0 12,0 9 5 - - S 1015,2 9
16.10.2018 08:00:00 11,9 11,9 11 6 - - S 1015,0 2,5
16.10.2018 07:00:00 12,2 12,2 9 5 - - SSE 1014,7 5
16.10.2018 06:00:00 12,3 12,2 5 3 - - SSW 1014,7 2,8
16.10.2018 05:00:00 12,4 12,3 5 3 - - S 1014,7 0,9
16.10.2018 04:00:00 12,5 12,3 8 4 - - SSE 1014,7 2,6
16.10.2018 03:00:00 12,4 12,2 8 4 - - SE 1014,7 2,8
16.10.2018 02:00:00 12,3 12,0 11 6 - - E 1015,3 4,0
16.10.2018 01:00:00 12,1 11,7 15 8 - - ENE 1015,3 8
16.10.2018 00:00:00 12,0 11,3 16 9 - - ENE 1015,5 8
15.10.2018 23:00:00 12,0 11,2 18 10 - - ENE 1015,7 15
15.10.2018 22:00:00 11,8 10,7 22 12 - - ENE 1015,9 15
15.10.2018 21:00:00 12,0 10,7 22 12 - - NNE 1015,6 14
15.10.2018 20:00:00 11,8 10,6 22 12 - - NE 1015,2 21
15.10.2018 19:00:00 11,4 10,7 28 15 - - NE 1015,3 12
15.10.2018 18:00:00 11,7 10,2 28 15 - - NNE 1015,2 7
15.10.2018 17:00:00 11,6 9,7 35 19 50 27 NNE 1014,7 30
15.10.2018 16:00:00 11,8 9,7 34 18 - - NNE 1014,6 27
15.10.2018 15:00:00 11,5 9,8 35 19 - - NNE 1014,1 30
15.10.2018 14:00:00 11,6 10,5 34 18 - - N 1013,8 26
15.10.2018 13:00:00 11,2 10,3 35 19 - - N 1013,7 18
15.10.2018 12:00:00 11,2 10,4 34 18 - - N 1013,7 8
15.10.2018 11:00:00 11,0 10,2 35 19 - - N 1013,4 9
15.10.2018 10:00:00 10,8 10,1 39 21 48 26 N 1013,3 6
15.10.2018 09:00:00 11,6 9,5 41 22 48 26 NNE 1012,7 22
15.10.2018 08:00:00 11,3 9,7 41 22 48 26 NNE 1012,2 24
15.10.2018 07:00:00 10,9 10,3 37 20 46 25 N 1011,5 10
15.10.2018 06:00:00 10,9 10,3 34 18 - - N 1011,5 6
15.10.2018 05:00:00 11,1 9,6 34 18 - - N 1011,5 21
15.10.2018 04:00:00 11,0 9,3 31 17 - - NNE 1011,5 24
15.10.2018 03:00:00 10,9 9,6 34 18 - - N 1011,6 9
15.10.2018 02:00:00 11,3 8,8 31 17 - - N 1011,5 28
15.10.2018 01:00:00 11,3 9,0 34 18 - - N 1011,3 30
15.10.2018 00:00:00 11,2 9,2 35 19 - - N 1011,1 28
14.10.2018 23:00:00 11,2 8,8 31 17 - - N 1011,4 30
14.10.2018 22:00:00 11,1 8,3 26 14 - - NNE 1011,4 35
14.10.2018 21:00:00 10,8 8,0 35 19 - - NNE 1011,2 16
14.10.2018 20:00:00 10,8 7,8 34 18 50 27 NNE 1010,6 30
14.10.2018 19:00:00 10,4 7,6 42 23 50 27 N 1010,2 30
14.10.2018 18:00:00 10,0 8,1 44 24 52 28 N 1009,5 18
14.10.2018 17:00:00 10,0 8,5 41 22 50 27 NNW 1008,7 8
14.10.2018 16:00:00 9,8 8,7 39 21 54 29 NNW 1008,4 10
14.10.2018 15:00:00 9,7 8,8 39 21 54 29 NW 1008,1 17
14.10.2018 14:00:00 10,2 9,3 41 22 52 28 NW 1007,5 8
14.10.2018 13:00:00 11,0 10,3 37 20 46 25 NNW 1007,5 7
14.10.2018 12:00:00 11,0 10,5 34 18 46 25 NNW 1008,3 3,2
14.10.2018 11:00:00 11,3 10,7 35 19 - - N 1006,6 4,9
14.10.2018 10:00:00 12,4 11,7 18 10 - - NNW 1006,2 4,9
14.10.2018 09:00:00 13,6 11,8 24 13 - - NW 1005,7 12
14.10.2018 08:00:00 14,7 11,9 9 5 - - WSW 1005,8 35
14.10.2018 07:00:00 15,2 11,7 16 9 - - SW 1005,5 40
14.10.2018 06:00:00 15,6 11,8 18 10 - - SW 1005,2 10
14.10.2018 05:00:00 16,4 11,6 26 14 - - SW 1004,7 40
14.10.2018 04:00:00 17,4 13,4 22 12 - - SSW 1004,4 45
14.10.2018 03:00:00 18,0 14,3 18 10 - - S 1004,2 35
14.10.2018 02:00:00 19,1 15,5 26 14 46 25 S 1004,6 30
14.10.2018 01:00:00 18,8 15,1 21 11 - - S 1004,0 10
14.10.2018 00:00:00 18,9 14,8 24 13 - - S 1004,0 35
13.10.2018 23:00:00 19,5 14,8 26 14 - - S 1004,2 35
13.10.2018 22:00:00 20,4 14,9 24 13 48 26 S 1004,4 35
13.10.2018 21:00:00 21,1 14,8 29 16 50 27 S 1004,3 35
13.10.2018 20:00:00 20,9 14,6 29 16 55 30 S 1004,2 35
13.10.2018 19:00:00 21,5 14,4 28 15 54 29 S 1003,9 35
13.10.2018 18:00:00 22,5 14,3 28 15 55 30 S 1003,4 30
13.10.2018 17:00:00 24,0 13,8 31 17 65 35 S 1003,1 40
13.10.2018 16:00:00 24,8 12,9 34 18 61 33 S 1003,1 35
13.10.2018 15:00:00 26,3 15,3 31 17 54 29 S 1003,8 35
13.10.2018 14:00:00 23,3 15,2 31 17 61 33 S 1005,0 35
13.10.2018 13:00:00 23,6 15,7 41 22 74 40 S 1005,6 35
13.10.2018 12:00:00 21,8 16,1 42 23 78 42 S 1006,3 35
13.10.2018 11:00:00 21,1 14,2 35 19 61 33 S 1006,9 40
13.10.2018 10:00:00 19,6 13,7 31 17 54 29 S 1007,0 35
13.10.2018 09:00:00 19,2 14,5 31 17 55 30 SSE 1006,7 35
13.10.2018 08:00:00 18,5 14,9 29 16 54 29 S 1006,6 35
13.10.2018 07:00:00 18,5 15,2 28 15 46 25 S 1006,5 35
13.10.2018 06:00:00 19,0 15,4 28 15 50 27 S 1006,6 10
13.10.2018 05:00:00 18,9 14,9 26 14 52 28 S 1006,9 35
13.10.2018 04:00:00 19,4 15,4 34 18 54 29 S 1007,1 35
13.10.2018 03:00:00 19,5 15,1 28 15 57 31 S 1007,5 35
13.10.2018 02:00:00 19,7 14,7 29 16 59 32 S 1007,5 30
13.10.2018 01:00:00 19,7 14,7 31 17 61 33 S 1007,3 35
13.10.2018 00:00:00 19,6 14,4 29 16 61 33 S 1007,0 30
12.10.2018 23:00:00 19,8 14,2 34 18 63 34 S 1007,0 30
12.10.2018 22:00:00 19,7 14,1 34 18 67 36 S 1006,9 35
12.10.2018 21:00:00 19,7 14,3 35 19 68 37 S 1006,0 35
12.10.2018 20:00:00 19,5 13,6 34 18 63 34 S 1005,9 30
12.10.2018 19:00:00 19,6 13,3 31 17 61 33 S 1005,4 30
12.10.2018 18:00:00 20,1 12,8 34 18 67 36 S 1005,1 30
12.10.2018 17:00:00 20,6 12,2 39 21 72 39 S 1004,0 30
12.10.2018 16:00:00 20,2 12,2 34 18 57 31 S 1004,2 35
12.10.2018 15:00:00 19,4 12,9 34 18 54 29 S 1004,9 30
12.10.2018 14:00:00 17,6 13,5 31 17 55 30 S 1005,2 30
12.10.2018 13:00:00 17,5 13,5 31 17 61 33 S 1006,0 30
12.10.2018 12:00:00 17,0 12,4 31 17 61 33 S 1006,2 10
12.10.2018 11:00:00 16,5 12,5 29 16 52 28 S 1006,3 30
12.10.2018 10:00:00 15,4 12,1 31 17 54 29 S 1005,8 28
12.10.2018 09:00:00 14,7 11,8 29 16 54 29 SSE 1005,8 27
12.10.2018 08:00:00 13,9 11,7 29 16 48 26 SSE 1005,6 25
12.10.2018 07:00:00 13,7 11,6 24 13 - - S 1005,8 26
12.10.2018 06:00:00 13,6 11,5 28 15 - - S 1005,4 10
12.10.2018 05:00:00 13,1 11,5 22 12 - - S 1005,4 28
12.10.2018 04:00:00 12,9 11,8 24 13 - - SSE 1005,5 26
12.10.2018 03:00:00 12,5 11,1 18 10 - - S 1005,5 27
12.10.2018 02:00:00 13,1 11,2 16 9 - - S 1005,9 29
12.10.2018 01:00:00 14,3 11,5 21 11 61 33 S 1005,4 10
12.10.2018 00:00:00 15,3 12,4 15 8 - - S 1004,9 35
11.10.2018 23:00:00 16,1 12,8 18 10 - - S 1004,4 10
11.10.2018 22:00:00 16,8 12,7 24 13 - - SSE 1004,0 30
11.10.2018 21:00:00 17,6 13,2 24 13 - - SSE 1003,4 30
11.10.2018 20:00:00 18,2 12,9 22 12 46 25 S 1003,4 30
11.10.2018 19:00:00 18,8 13,8 22 12 46 25 SSE 1003,2 30
11.10.2018 18:00:00 19,4 14,0 29 16 46 25 SSE 1002,3 30
11.10.2018 17:00:00 18,9 14,7 24 13 - - SE 1002,0 26
11.10.2018 16:00:00 19,6 13,7 22 12 - - SE 1002,1 24
11.10.2018 15:00:00 21,7 15,2 24 13 46 25 SSE 1002,6 28
11.10.2018 14:00:00 21,1 14,9 22 12 54 29 SSE 1002,8 30
11.10.2018 13:00:00 19,7 14,4 26 14 54 29 S 1003,0 30
11.10.2018 12:00:00 17,7 14,5 35 19 54 29 SSE 1003,0 30
11.10.2018 11:00:00 16,6 14,3 28 15 - - SSE 1003,4 29
11.10.2018 10:00:00 14,7 14,2 22 12 - - SSE 1003,4 14
11.10.2018 09:00:00 13,8 13,4 - - - - - 1003,3 3,9
11.10.2018 08:00:00 13,9 13,5 - - - - - 1003,0 4,0
11.10.2018 07:00:00 13,4 13,1 - - - - - 1002,8 4,2

tt = temperature
td = dewpoint
ff = wind speed
fx = gusts
dd = wind direction
ppp = reduced air pressure
vv = visibility

Next stations